This is the latest recevied weather packets stored in our database for station/object N7WSS. If no packets are shown the sender has not sent any weather packets the latest 10 day(s).
| Time | Temp. | Humidity | Pressure | Rain* | Wind** | Luminosity | Snow |
|---|---|---|---|---|---|---|---|
| 1777916317 | 24.44° C | 26% | 1012.5 hPa | 0 mm | - | - | - |
| 1777916014 | 24.44° C | 26% | 1012.4 hPa | 0 mm | - | - | - |
| 1777915711 | 24.44° C | 27% | 1012.5 hPa | 0 mm | - | - | - |
| 1777915408 | 24.44° C | 27% | 1012.6 hPa | 0 mm | - | - | - |
| 1777915104 | 23.89° C | 27% | 1012.6 hPa | 0 mm | - | - | - |
| 1777914801 | 23.89° C | 26% | 1012.6 hPa | 0 mm | - | - | - |
| 1777914498 | 24.44° C | 26% | 1012.6 hPa | 0 mm | - | - | - |
| 1777914195 | 25° C | 26% | 1012.6 hPa | 0 mm | - | - | - |
| 1777913891 | 24.44° C | 26% | 1012.4 hPa | 0 mm | - | - | - |
| 1777913588 | 25° C | 24% | 1012.5 hPa | 0 mm | - | - | - |
| 1777913284 | 24.44° C | 26% | 1012.5 hPa | 0 mm | - | - | - |
| 1777912981 | 24.44° C | 26% | 1012.5 hPa | 0 mm | - | - | - |
| 1777912677 | 24.44° C | 26% | 1012.5 hPa | 0 mm | - | - | - |
| 1777912373 | 25° C | 26% | 1012.4 hPa | 0 mm | - | - | - |
| 1777912070 | 24.44° C | 26% | 1012.5 hPa | 0 mm | - | - | - |
| 1777911766 | 25° C | 25% | 1012.5 hPa | 0 mm | - | - | - |
| 1777911463 | 25° C | 25% | 1012.5 hPa | 0 mm | - | - | - |
| 1777911159 | 25° C | 26% | 1012.5 hPa | 0 mm | - | - | - |
| 1777910857 | 25.56° C | 27% | 1012.6 hPa | 0 mm | - | - | - |
| 1777910553 | 25.56° C | 26% | 1012.4 hPa | 0 mm | - | - | - |
| 1777910251 | 25° C | 28% | 1012.3 hPa | 0 mm | - | - | - |
| 1777909948 | 25° C | 29% | 1012.3 hPa | 0 mm | - | - | - |
| 1777909644 | 24.44° C | 28% | 1012.5 hPa | 0 mm | - | - | - |
| 1777909342 | 23.89° C | 30% | 1012.4 hPa | 0 mm | - | - | - |
| 1777909039 | 23.33° C | 31% | 1012.7 hPa | 0 mm | - | - | - |
* Rain latest hour (hover to see other rain measurements)
** Current wind speed in m/s (hover to see current wind gust speed)